Showing default

COSMOS 2451, 35498

Orbit data source: Space-Track

COSMOS 2451, 35498 is a payload satellite owned by KVR (CIS) in LEO that was launched on Mon, 06 Jul 2009 UTC via an ROKOT launch vehicle from the Plesetsk Missile And Space Complex (PKMTR). Payload-class satellites include a variety of spacecraft equipped with specific instruments for various scientific and technological missions. These include communications satellites like Starlink; space stations such as the ISS; scientific satellites like the Hubble; Earth observation satellites from companies like Planet Labs, Umbra, and HawkEye 360; GPS; miniature CubeSats for education and research; and military/defense satellites.

Loading next visibility...
Identifier
35498, 2009-036A
Orbit
LEO
Country
Flag of CISCIS
Related business
Manufacturer
Resehetnev ISS
Mission
Operational Defense Communications
Bus & Motor
STRELA-3, Unknown motor
Mass
225 kg wet, 225 kg dry
Launch date (UTC)
2009-07-06 (16 years ago)
Launch vehicle
ROKOT
Launch site
Plesetsk Missile And Space Complex (PKMTR)
Object type
Payload
Rocket body
Debris
Shape & HBR
Cyl + 1 Ant, 3.5 m
Radar Cross Section
1.583 m², Medium (>0.1 m² and < 1m²)

Expand to show TLE details & history
Last TLE update: 12 hours ago

TLE from 12 hours ago
0 COSMOS 2451
1 35498U 09036A   25312.81664581  .00000039  00000-0  21692-3 0  9994
2 35498  82.4899 229.0654 0006857 338.2452  21.8334 12.40865683740311
Epoch: 2025-11-08T19:35Z
TLE epoch observation values (Epoch: 2025-11-08T19:35:58.197Z)
Latitude
-0.00008°
Longitude
-113.16792°
Altitude
1,500.615 km
Speed
7.116 km/s
True Right ascension
15h 16m 15s
True Declination
0° 00' 00"
Sunlit
Object was in daylight at epoch
Visualization orbit readout
Latitude
Unknown
Longitude
Unknown
Altitude
Unknown
Speed
Unknown
Apparent Right ascension
Unknown
Apparent Declination
Unknown
Sunlit
N/A
Visualization observer readout
Local Sidereal Time
04:09:24
Azimuth
Unknown
Elevation
Unknown
Doppler factor
Unknown
Orbital elements
Apogee altitude
1,505.692 km
Perigee altitude
1,494.888 km
Semi-major axis
7,878.427 km
Eccentricity
0.00069
Inclination
82.4899°
RAAN
229.0654°
Arg. of periapsis
338.2452°
True anomaly
21.86265°
Mean anomaly
21.8334°
Eccentric anomaly
21.84802°
Mean motion
3.10373 °/min
Orbital period
115.99 mins
BSTAR
0.00021692
Loading maneuver chart data...
Computing Atmospheric mass density...
Loading historical data...
Loading historical data...
Loading historical data...
Loading historical data...
Loading historical data...
Loading historical data...
Loading historical data...
Other satellites on launch #36 in the year 2009 (2009-07-06 UTC)

Documentation

Showing up to 5 results
|